Location: Anglesey
(53.1800°N, 4.2200°W)
Time: 10:27:35
(UTC+01:00)

Tiangong 2 - Pass Details

Date: 15 October 2017
Orbit: 388 x 392 km, 42.8° (Epoch: 16 October)

Event Time Altitude Azimuth Distance (km) Brightness Sun altitude
Exits shadow 05:58:49 13° 191° (S) 1,251 3.5 -16.4°
Maximum altitude 05:59:14 13° 182° (S) 1,238 3.5 -16.3°
Drops below altitude 10° 06:00:52 10° 151° (SSE) 1,421 4.2 -16.1°
Sets 06:03:44 0° 123° (ESE) 2,277 5.8 -15.7°
